This is the latest recevied weather packets stored in our database for station/object OE3MHU-12. If no packets are shown the sender has not sent any weather packets the latest 10 day(s).
| Time | Temp. | Humidity | Pressure | Rain* | Wind** | Luminosity | Snow |
|---|---|---|---|---|---|---|---|
| 1788230585 | 12.22° C | 83% | 1018.3 hPa | 0 mm | - | - | - |
| 1788226985 | 13.33° C | 82% | 1018.1 hPa | 0 mm | - | - | - |
| 1788225185 | 13.89° C | 81% | 1017.8 hPa | 0 mm | - | - | - |
| 1788223385 | 14.44° C | 80% | 1017.5 hPa | 0 mm | - | - | - |
| 1788221938 | 15° C | 80% | 1017.4 hPa | 0 mm | - | - | - |
| 1788221585 | 15° C | 80% | 1017.4 hPa | 0 mm | - | - | - |
| 1788219785 | 15° C | 80% | 1017.3 hPa | 0 mm | - | - | - |
| 1788217985 | 15.56° C | 79% | 1017.1 hPa | 0 mm | - | - | - |
| 1788216186 | 16.11° C | 77% | 1017.3 hPa | 0 mm | - | - | - |
| 1788214386 | 17.22° C | 74% | 1017.4 hPa | 0 mm | - | - | - |
| 1788212586 | 17.78° C | 72% | 1017.1 hPa | 0 mm | - | - | - |
| 1788210786 | 18.33° C | 71% | 1017 hPa | 0 mm | - | - | - |
| 1788208986 | 18.89° C | 69% | 1016.9 hPa | 0 mm | - | - | - |
| 1788207186 | 18.89° C | 70% | 1016.3 hPa | 0 mm | - | - | - |
| 1788203871 | 20° C | 64% | 1015.3 hPa | 0 mm | - | - | - |
| 1788203586 | 20° C | 64% | 1015.3 hPa | 0 mm | - | - | - |
| 1788201786 | 21.11° C | 60% | 1014.7 hPa | 0 mm | - | - | - |
| 1788200018 | 22.22° C | 55% | 1014.4 hPa | 0 mm | - | - | - |
| 1788199986 | 22.22° C | 55% | 1014.4 hPa | 0 mm | - | - | - |
| 1788198186 | 23.33° C | 52% | 1014 hPa | 0 mm | - | - | - |
| 1788196387 | 24.44° C | 48% | 1014 hPa | 0 mm | - | - | - |
| 1788194587 | 25° C | 46% | 1013.9 hPa | 0 mm | - | - | - |
| 1788192787 | 25.56° C | 46% | 1013.8 hPa | 0 mm | - | - | - |
| 1788191047 | 26.11° C | 44% | 1014 hPa | 0 mm | - | - | - |
| 1788190987 | 26.11° C | 44% | 1014 hPa | 0 mm | - | - | - |
* Rain latest hour (hover to see other rain measurements)
** Current wind speed in m/s (hover to see current wind gust speed)